Weather History for Teterboro, NJ

Change the Weather History Date:

Friday, February 22, 2013

  Actual Average Record
Temperature  
Mean Temperature 30 °F -  
Max Temperature 37 °F 41 °F 71 °F (1997)
Min Temperature 24 °F 26 °F 16 °F (2001)
Degree Days  
Heating Degree Days 34    
Moisture  
Dew Point 21 °F    
Average Humidity 64    
Maximum Humidity 76    
Minimum Humidity 50    
Precipitation  
Precipitation 0.00 in - - ()
Sea Level Pressure  
Sea Level Pressure 30.33 in    
Wind  
Wind Speed 5 mph (ENE)    
Max Wind Speed 8 mph    
Max Gust Speed -    
Visibility 10 miles    
Events Snow    
Averages and records for this station are not official NWS values.
T = Trace of Precipitation, MM = Missing Value Source: NWS Daily Summary

Daily Weather History Graph

Daily Weather History Graph

Search for Another Location

Airport:

Trip Planner

Search our weather history database for the weather conditions in past years. The results will help you decide how hot, cold, wet, or windy it might be!

Date:

Astronomy

Feb. 22, 2013 Rise Set
Actual Time 6:40 AM EST 5:39 PM EST
Civil Twilight 6:12 AM EST 6:07 PM EST
Nautical Twilight 5:40 AM EST 6:39 PM EST
Astronomical Twilight 5:09 AM EST 7:10 PM EST
Moon 2:47 PM EST (2/22) 4:24 AM EST (2/22)
Length of Visible Light 11h 54m
Length of Day
10h 59m
Waxing Gibbous, 90% of the Moon is Illuminated
Feb 22
Waxing Gibbous
Feb 25
Full
Mar 4
Last Quarter
Mar 11
New
Mar 19
First Quarter

Hourly Weather History & Observations

Time (EST) Temp. Windchill Dew Point Humidity Pressure Visibility Wind Dir Wind Speed Gust Speed Precip Events Conditions
12:51 AM 24.1 °F 17.0 °F 14.0 °F 65% 30.28 in 10.0 mi NNW 5.8 mph - N/A   Clear
1:51 AM 24.1 °F 17.0 °F 14.0 °F 65% 30.28 in 10.0 mi North 5.8 mph - N/A   Clear
2:51 AM 24.1 °F 17.0 °F 15.1 °F 69% 30.32 in 10.0 mi West 5.8 mph - N/A   Clear
3:51 AM 24.1 °F 16.0 °F 15.1 °F 69% 30.31 in 10.0 mi North 6.9 mph - N/A   Clear
4:51 AM 24.1 °F - 16.0 °F 71% 30.34 in 10.0 mi Calm Calm - N/A   Clear
5:51 AM 26.1 °F 19.4 °F 18.0 °F 71% 30.37 in 10.0 mi North 5.8 mph - N/A   Clear
6:51 AM 27.0 °F 21.6 °F 18.0 °F 69% 30.39 in 10.0 mi NNE 4.6 mph - N/A   Clear
7:51 AM 28.0 °F 21.7 °F 19.0 °F 69% 30.40 in 10.0 mi North 5.8 mph - N/A   Clear
8:51 AM 28.9 °F 21.9 °F 18.0 °F 64% 30.40 in 10.0 mi NNE 6.9 mph - N/A   Clear
9:51 AM 30.9 °F 26.2 °F 18.0 °F 59% 30.39 in 10.0 mi NNE 4.6 mph - N/A   Clear
10:51 AM 34.0 °F 29.8 °F 19.0 °F 54% 30.39 in 10.0 mi ENE 4.6 mph - N/A   Clear
11:51 AM 35.1 °F 29.3 °F 19.0 °F 52% 30.38 in 10.0 mi East 6.9 mph - N/A   Clear
12:51 PM 36.0 °F 30.3 °F 19.0 °F 50% 30.35 in 10.0 mi NE 6.9 mph - N/A   Clear
1:51 PM 37.0 °F 32.4 °F 19.9 °F 50% 30.32 in 10.0 mi East 5.8 mph - N/A   Clear
2:51 PM 37.0 °F 32.4 °F 19.9 °F 50% 30.31 in 10.0 mi East 5.8 mph - N/A   Partly Cloudy
3:51 PM 37.0 °F - 21.0 °F 52% 30.31 in 10.0 mi Calm Calm - N/A   Clear
4:51 PM 37.0 °F 31.6 °F 25.0 °F 62% 30.31 in 10.0 mi South 6.9 mph - N/A   Overcast
5:51 PM 37.0 °F 31.6 °F 24.1 °F 59% 30.32 in 9.0 mi SSE 6.9 mph - 0.00 in Snow Light Snow
6:51 PM 37.0 °F 33.3 °F 25.0 °F 62% 30.32 in 10.0 mi East 4.6 mph - 0.00 in Snow Light Snow
7:34 PM 37.4 °F 32.1 °F 28.4 °F 70% 30.31 in 10.0 mi SE 6.9 mph - 0.00 in Snow Light Snow
7:51 PM 37.0 °F 33.3 °F 28.0 °F 70% 30.31 in 10.0 mi ESE 4.6 mph - 0.00 in Snow Light Snow
8:51 PM 37.0 °F 31.0 °F 28.9 °F 73% 30.31 in 10.0 mi SSE 8.1 mph - 0.00 in   Overcast
9:51 PM 37.0 °F 31.6 °F 28.9 °F 73% 30.29 in 10.0 mi SE 6.9 mph - N/A   Overcast
10:51 PM 37.0 °F 33.3 °F 28.9 °F 73% 30.29 in 10.0 mi SE 4.6 mph - N/A   Overcast
11:51 PM 37.0 °F 33.3 °F 30.0 °F 76% 30.26 in 10.0 mi East 4.6 mph - N/A   Overcast